{"data":{"norad_id":48231,"intl_designator":"2021-031X","name":"ONEWEB-0188","alt_names":[],"object_type":"PAYLOAD","status":"ACTIVE","operator":null,"country":"UK","launch_date":"2021-04-25","launch_site_code":"VOSTO","launch_vehicle":null,"mission":null,"orbit_class":"UNKNOWN","rcs_meters":null,"size_class":null,"mass_kg":null,"dimensions":null,"purposes":["comms"],"wikipedia_slug":null,"has_3d_model":false,"image_url":null,"decayed_at":null,"tle_current":{"epoch":"2026-05-25T03:29:25.787040Z","epoch_age_seconds":59138,"freshness":"FRESH","line1":"1 48231U 21031X   26145.14543735 -.00000099  00000+0 -30158-3 0  9994","line2":"2 48231  87.8934 294.3218 0001857  99.7740 260.3600 13.14502925245117","mean_motion":13.14502925,"eccentricity":0.0001857,"inclination_deg":87.8934,"raan_deg":294.3218,"arg_perigee_deg":99.774,"mean_anomaly_deg":260.36,"bstar":-0.00030158,"rev_number":24511,"period_min":109.54711264716,"perigee_km":1204.3815386379,"apogee_km":1207.1982090789,"semimajor_km":7583.9268738584,"source":"CELESTRAK","updated_at":"2026-05-25T13:38:22.437692Z"}}}